Aeroporto :
LOGIN :

Iscrizione | Disclaimer

   EN    FR    IT 

 










Sommario :    VFR   VFR Marginale   IFR   IFR Intensivo   IFR Molto Intensivo
Visibilità : 
Base nubi : 
>= 8 km
>= 3000ft
5 / 8 km
1000 / 3000 ft
1500m / 5 km
500 / 1000 ft
800 / 1500m
200 / 500 ft
< 800m
< 200 ft
Simboli :   Temporali  Nebbia  Neve Forte  Precipitazioni Forti  Vento > 20 kt
SIGMETs :   Varie  Temporali  Ghiacco  Turbolenza  Onda orograficha  Ceneri Vulcaniche






- Altitudine del aeroporto : 640 ft
- Codice IATA : AOC


EDAC - Altenburg-Nobitz

ULTIMO METAR :
  • 251520Z 14003KT 110V190 CAVOK 15/08 Q1006

METARs OBSOLETI :
  • 251450Z 19006KT 150V210 CAVOK 17/08 Q1007
  • 251420Z 19006KT CAVOK 17/08 Q1007
  • 251350Z 20010KT CAVOK 17/07 Q1007
  • 251320Z 19009KT 160V220 CAVOK 17/07 Q1007
  • 251250Z 21010KT CAVOK 17/08 Q1008

TAF TAF EDAC
Valido dal 25 a 15 ore il 26 a 00 ore UTC


251400Z 2515/2524 20010KT CAVOK
BECMG 2515/2518 16005KT



MetMap, La meteo Aeronautica in un colpo d'occhio ! - Copyright ORBIFLY Dicembre 2007 - Disclaimer

ORBIFLY MET'MAP TEAM :

Programmazione e sviluppo : Alexandra Zaïnal
Concezione : Baudouin d'Aumeries
Aiuto per la programmazione : Marc-Olivier Méhu
Supporto tecnico e logistico : Manuel Goepfert
Aiuto per la traduzione : Arnaldo La Scala

Contatto : metmap@orbifly.com




FONTI E CREDITI :

   NOAA